Location: Melizzano
(41.1500°N, 14.5000°E)
Time: 18:44:21
(UTC+00:00)

Cosmos 2297 - Pass Details

Date: 11 May 2021
Orbit: 837 x 857 km, 71.0° (Epoch: 21 June)

Event Time Altitude Azimuth Distance (km) Brightness Sun altitude
Exits shadow 21:22:19 73° 99° (E) 889 3.6 -26.7°
Drops below altitude 10° 21:27:52 10° 27° (NNE) 2,475 6.6 -27.1°
Sets 21:30:19 0° 26° (NNE) 3,411 7.4 -27.3°
